EW8682 Weather Reports


Display with metric or nautical units.
time (UTC)temp
F
wind
direction
speed
MPH
gust
MPH
rain 1hr
in
rain 24hr
in
rain mn
in
humidity
%
barometer
mb
20260504201550 61 178 2.0 4.0 0.00 0.00 0.00 61 1007.3
20260504200049 61 173 2.0 5.0 0.00 0.00 0.00 60 1007.4
20260504194553 60 175 0.0 6.0 0.00 0.00 0.00 62 1007.6
20260504193050 60 170 4.0 9.0 0.00 0.00 0.00 62 1007.7
20260504191609 60 174 3.0 8.0 0.00 0.00 0.00 64 1007.6
20260504190047 60 175 4.0 8.0 0.00 0.00 0.00 61 1007.7
20260504184555 60 178 1.0 7.0 0.00 0.01 0.00 62 1007.8
20260504183145 61 171 3.0 8.0 0.00 0.01 0.00 61 1007.8
20260504181542 61 195 2.0 7.0 0.00 0.01 0.00 56 1007.8
20260504180040 60 178 0.0 4.0 0.00 0.01 0.00 59 1007.7
20260504174538 60 191 3.0 9.0 0.00 0.06 0.00 59 1007.8
20260504173035 59 205 3.0 6.0 0.00 0.06 0.00 64 1007.7
20260504171532 58 199 1.0 5.0 0.00 0.06 0.00 66 1007.7
20260504081531 54 179 0.0 2.0 0.00 0.10 0.00 81 1007.8
20260504050017 55 179 0.0 1.0 0.00 0.10 0.10 75 1007.1
20260504044515 55 179 0.0 2.0 0.00 0.10 0.10 74 1006.9
20260504043014 56 179 0.0 2.0 0.00 0.10 0.10 73 1006.8
20260504041512 56 179 0.0 2.0 0.00 0.10 0.10 73 1006.7
20260504040014 56 179 0.0 3.0 0.00 0.10 0.10 73 1006.5
20260504034517 56 175 1.0 6.0 0.00 0.10 0.10 73 1006.3
20260504033009 56 200 1.0 4.0 0.00 0.10 0.10 71 1006.1
20260504031508 57 173 1.0 4.0 0.00 0.10 0.10 72 1005.8
20260504030008 57 175 0.0 2.0 0.00 0.10 0.10 74 1005.7
20260504024509 57 175 0.0 3.0 0.00 0.10 0.10 72 1005.6
20260504023006 58 173 2.0 4.0 0.00 0.10 0.10 70 1005.4
20260504021505 59 173 0.0 3.0 0.00 0.10 0.10 69 1005.2
20260504020005 59 175 1.0 3.0 0.00 0.10 0.10 69 1005.3
20260504014504 59 175 0.0 3.0 0.00 0.10 0.10 71 1004.9
20260504013004 59 175 0.0 2.0 0.00 0.10 0.10 70 1005.0
20260504011503 59 171 1.0 6.0 0.00 0.10 0.10 70 1005.1
20260504010003 59 173 1.0 4.0 0.00 0.10 0.10 69 1004.9
20260504004502 60 173 2.0 4.0 0.00 0.10 0.10 68 1004.7
20260504003002 60 146 1.0 3.0 0.00 0.10 0.10 71 1004.8
20260504001559 60 124 0.0 2.0 0.00 0.10 0.10 72 1004.7
20260504000136 60 121 0.0 1.0 0.00 0.10 0.10 75 1004.7
20260503234555 59 116 0.0 3.0 0.00 0.10 0.10 76 1004.7
20260503233054 59 177 0.0 2.0 0.00 0.10 0.10 76 1004.8
20260503231552 59 178 0.0 1.0 0.00 0.10 0.10 74 1004.9
20260503230053 58 178 0.0 2.0 0.00 0.10 0.10 75 1004.9
20260503224547 58 178 0.0 3.0 0.00 0.10 0.10 78 1005.0
20260503223046 58 178 1.0 4.0 0.00 0.10 0.10 76 1005.3
20260503221545 57 178 1.0 4.0 0.00 0.10 0.10 79 1005.3
20260503220043 57 171 1.0 4.0 0.00 0.10 0.10 80 1005.6
20260503214540 57 173 1.0 4.0 0.00 0.10 0.10 82 1005.6
20260503213039 56 173 1.0 4.0 0.00 0.10 0.10 84 1005.5
20260503211539 57 175 0.0 2.0 0.00 0.10 0.10 88 1005.5
20260503210038 57 175 0.0 1.0 0.00 0.10 0.10 89 1005.5
20260503204537 56 175 0.0 1.0 0.00 0.10 0.10 90 1005.5
20260503203041 56 175 0.0 5.0 0.00 0.10 0.10 90 1005.5